Weather in Bogoroditskoye

Russia / Oryol Oblast     53°03′32″N   35°21′57″E
temp.,
°C
wind,
m/s
gust,
m/s
humid.,
%
clouds,
%
prec.,
mm/h
press.,
hPa
HPBL,
m
23 september, thu
thu2300:00+7n2297100 0.2 101291
03:00+7nnw239798 0.4 1012122
06:00+7nw2497100 0.2 1012143
09:00+8nw3392100 0.6 1012287
12:00+8w3392100 0.9 1012302
15:00+8w238984 1.0 1012177
18:00+7wsw359173 0.2 1012290
21:00+7wsw3690100 0.2 1011273
24 september, fri
fri2400:00+6ssw359099 0.0 1010260
03:00+5s4992100 0.0 1009446
06:00+5s61191100 0.0 1007587
09:00+6s81488100 0.0 1004782
12:00+7sse101688100 0.9 10011193
15:00+7s91492100 3.2 10001054
18:00+7s71295100 1.1 1000714
21:00+8s51095100 1.1 1001435
25 september, sat
sat2500:00+8s4796100 0.1 1001360
03:00+7sse3598100 0.1 1002199
06:00+7se239798 0.0 1004101
09:00+9s238995 0.0 1006254
12:00+12sw347388 0.3 1007951
15:00+12wsw456998 0.5 10081122
18:00+10w4786100 0.1 1009327
21:00+9sw4892100 0.1 1010368
26 september, sun
sun2600:00+8sw3797100 1.5 1010344
03:00+8sw4898100 2.9 1009399
06:00+9wnw51096100 0.1 1009476
09:00+10nw61090100 0.3 1010783
12:00+12nnw9117359 0.5 10121194
15:00+11nnw912705 0.7 10141243
18:00+9nnw7127757 0.0 1015825
21:00+8nnw6118282 0.1 1017869
27 september, mon
mon2700:00+8nnw5108698 0.1 1018597
03:00+8nnw51090100 0.1 1020523
06:00+7n4891100 0.1 1021405
09:00+9n578890 0.1 1022433
12:00+12nne5670100 0.2 10231039
15:00+12nne5667100 0.4 10231319
18:00+10n4875100 0.1 1024472
21:00+9nne4983100 0.1 1025551